�������l�o���
Date,Time,MP-1(��Sv/h),MP-2(��Sv/h),MP-3(��Sv/h),MP-4(��Sv/h),MP-5(��Sv/h),MP-6(��Sv/h),MP-7(��Sv/h),MP-8(��Sv/h),����,����(m/s),���J
2021/09/08,00:00,0.580,0.864,0.545,1.048,0.730,0.357,0.615,0.579,-,CALM,��
2021/09/08,00:10,0.582,0.864,0.545,1.048,0.730,0.357,0.615,0.580,-,CALM,��
2021/09/08,00:20,0.581,0.863,0.545,1.049,0.730,0.356,0.616,0.579,���쐼,0.6,��
2021/09/08,00:30,0.578,0.863,0.544,1.049,0.731,0.357,0.615,0.578,-,CALM,��
2021/09/08,00:40,0.581,0.863,0.543,1.050,0.730,0.357,0.615,0.578,�쐼,0.8,��
2021/09/08,00:50,0.580,0.862,0.545,1.048,0.730,0.357,0.614,0.581,�쐼,1.2,��
2021/09/08,01:00,0.580,0.863,0.545,1.047,0.731,0.358,0.616,0.580,�쐼,1.4,��
2021/09/08,01:10,0.580,0.865,0.544,1.048,0.731,0.356,0.617,0.578,��쐼,1.5,��
2021/09/08,01:20,0.580,0.862,0.545,1.047,0.733,0.357,0.616,0.578,�쐼,2.8,��
2021/09/08,01:30,0.580,0.863,0.545,1.046,0.730,0.356,0.616,0.581,�쐼,3.8,��
2021/09/08,01:40,0.580,0.864,0.547,1.047,0.731,0.356,0.615,0.579,�쐼,3.6,��
2021/09/08,01:50,0.582,0.863,0.545,1.049,0.730,0.358,0.615,0.579,���쐼,1.9,��
2021/09/08,02:00,0.580,0.861,0.545,1.049,0.730,0.358,0.614,0.580,��쐼,1.1,��
2021/09/08,02:10,0.580,0.861,0.544,1.047,0.730,0.356,0.615,0.579,��쐼,1.1,��
2021/09/08,02:20,0.581,0.862,0.545,1.049,0.730,0.357,0.616,0.578,��쐼,1.4,��
2021/09/08,02:30,0.582,0.862,0.546,1.048,0.730,0.358,0.616,0.580,�쐼,1.2,��
2021/09/08,02:40,0.581,0.863,0.546,1.047,0.729,0.357,0.616,0.580,��,0.6,��
2021/09/08,02:50,0.580,0.864,0.546,1.048,0.732,0.356,0.615,0.580,-,CALM,��
2021/09/08,03:00,0.580,0.863,0.546,1.049,0.729,0.356,0.616,0.580,�쐼,1.4,��
2021/09/08,03:10,0.581,0.864,0.545,1.051,0.729,0.356,0.616,0.578,��쐼,1.7,��
2021/09/08,03:20,0.580,0.864,0.545,1.048,0.733,0.356,0.615,0.580,�쐼,2.2,��
2021/09/08,03:30,0.581,0.863,0.547,1.051,0.731,0.357,0.616,0.581,��쐼,2.2,��
2021/09/08,03:40,0.581,0.863,0.544,1.047,0.731,0.358,0.616,0.580,��쐼,2.0,��
2021/09/08,03:50,0.581,0.862,0.545,1.048,0.732,0.356,0.614,0.579,��쐼,1.5,��
2021/09/08,04:00,0.579,0.863,0.545,1.047,0.732,0.356,0.615,0.580,��,1.5,��
2021/09/08,04:10,0.580,0.862,0.545,1.047,0.733,0.356,0.616,0.580,��,1.2,��
2021/09/08,04:20,0.579,0.863,0.545,1.047,0.732,0.358,0.617,0.579,��,0.9,��
2021/09/08,04:30,0.580,0.862,0.546,1.049,0.731,0.357,0.615,0.580,��쓌,1.1,��
2021/09/08,04:40,0.579,0.864,0.546,1.047,0.732,0.355,0.615,0.580,-,CALM,��
2021/09/08,04:50,0.580,0.863,0.544,1.048,0.731,0.357,0.615,0.579,��,1.2,��
2021/09/08,05:00,0.581,0.864,0.546,1.049,0.731,0.357,0.615,0.579,�쐼,0.6,��
2021/09/08,05:10,0.580,0.865,0.546,1.047,0.732,0.356,0.616,0.580,�쐼,0.9,��
2021/09/08,05:20,0.580,0.862,0.545,1.046,0.733,0.357,0.617,0.580,�쐼,1.7,��
2021/09/08,05:30,0.580,0.864,0.547,1.050,0.733,0.356,0.615,0.579,�쐼,2.0,��
2021/09/08,05:40,0.581,0.862,0.545,1.049,0.733,0.357,0.615,0.579,�쐼,2.2,��
2021/09/08,05:50,0.580,0.863,0.545,1.048,0.731,0.356,0.617,0.580,��쐼,2.0,��
2021/09/08,06:00,0.581,0.862,0.545,1.048,0.732,0.357,0.616,0.581,��,2.0,��
2021/09/08,06:10,0.581,0.862,0.546,1.049,0.732,0.356,0.615,0.579,��쐼,1.5,��
2021/09/08,06:20,0.580,0.864,0.546,1.050,0.733,0.356,0.616,0.580,��쐼,2.3,��
2021/09/08,06:30,0.582,0.864,0.543,1.049,0.731,0.355,0.615,0.581,�쐼,2.2,��
2021/09/08,06:40,0.581,0.864,0.545,1.051,0.731,0.357,0.616,0.580,��쐼,1.7,��
2021/09/08,06:50,0.581,0.863,0.546,1.049,0.733,0.356,0.617,0.581,��,1.2,��
2021/09/08,07:00,0.583,0.865,0.547,1.049,0.733,0.358,0.617,0.580,��,1.5,��
2021/09/08,07:10,0.583,0.865,0.547,1.049,0.732,0.357,0.617,0.579,��,1.5,��
2021/09/08,07:20,0.582,0.867,0.546,1.048,0.732,0.356,0.616,0.580,��쐼,2.0,��
2021/09/08,07:30,0.584,0.865,0.547,1.049,0.732,0.357,0.616,0.580,��,2.0,��
2021/09/08,07:40,0.583,0.864,0.549,1.050,0.732,0.358,0.616,0.581,��,1.1,��
2021/09/08,07:50,0.583,0.865,0.546,1.049,0.732,0.356,0.616,0.578,��쓌,1.7,��
2021/09/08,08:00,0.584,0.864,0.546,1.048,0.731,0.358,0.615,0.580,��,1.4,��
2021/09/08,08:10,0.584,0.867,0.547,1.050,0.732,0.356,0.616,0.580,��쐼,1.5,��
2021/09/08,08:20,0.581,0.865,0.546,1.048,0.731,0.356,0.615,0.580,��쐼,1.2,��
2021/09/08,08:30,0.580,0.863,0.548,1.050,0.732,0.356,0.615,0.579,��,1.1,��
2021/09/08,08:40,0.581,0.865,0.548,1.049,0.732,0.355,0.616,0.580,��쓌,0.9,��
2021/09/08,08:50,0.581,0.862,0.546,1.049,0.731,0.356,0.615,0.580,��쐼,1.5,��
2021/09/08,09:00,0.581,0.861,0.548,1.048,0.732,0.355,0.614,0.579,��쐼,1.7,��
2021/09/08,09:10,0.581,0.861,0.546,1.051,0.733,0.356,0.614,0.579,��쐼,2.2,�L
2021/09/08,09:20,0.580,0.862,0.547,1.050,0.731,0.355,0.614,0.578,��,2.0,�L
2021/09/08,09:30,0.581,0.864,0.547,1.050,0.735,0.355,0.615,0.578,��쓌,2.5,��
2021/09/08,09:40,0.583,0.863,0.547,1.051,0.732,0.356,0.615,0.579,��쓌,2.2,��
2021/09/08,09:50,0.583,0.862,0.547,1.050,0.733,0.354,0.615,0.578,�쓌,3.3,��
2021/09/08,10:00,0.580,0.862,0.547,1.051,0.732,0.356,0.615,0.578,��쓌,3.9,��
2021/09/08,10:10,0.580,0.860,0.546,1.050,0.732,0.356,0.615,0.579,��쓌,4.2,��
2021/09/08,10:20,0.580,0.860,0.545,1.048,0.731,0.356,0.617,0.579,��쓌,3.9,�L
2021/09/08,10:30,0.582,0.862,0.545,1.050,0.730,0.357,0.616,0.578,��,4.0,�L
2021/09/08,10:40,0.580,0.861,0.547,1.052,0.728,0.357,0.614,0.579,��,3.9,�L
2021/09/08,10:50,0.581,0.861,0.545,1.050,0.734,0.356,0.615,0.577,��,3.6,�L
2021/09/08,11:00,0.582,0.863,0.547,1.053,0.733,0.358,0.617,0.578,��쓌,3.6,�L
2021/09/08,11:10,0.582,0.862,0.549,1.052,0.733,0.356,0.617,0.577,��,3.6,�L
2021/09/08,11:20,0.583,0.866,0.550,1.052,0.734,0.358,0.615,0.579,��,4.9,�L
2021/09/08,11:30,0.583,0.864,0.551,1.051,0.734,0.360,0.617,0.578,��,4.9,�L
2021/09/08,11:40,0.584,0.865,0.550,1.053,0.734,0.358,0.616,0.577,��,5.2,�L
2021/09/08,11:50,0.583,0.868,0.550,1.050,0.734,0.358,0.615,0.579,��,5.6,�L
2021/09/08,12:00,0.584,0.865,0.548,1.052,0.735,0.359,0.616,0.578,��,4.9,�L
2021/09/08,12:10,0.585,0.864,0.549,1.052,0.730,0.358,0.616,0.577,��,5.8,�L
2021/09/08,12:20,0.582,0.864,0.548,1.052,0.732,0.359,0.616,0.579,��,5.8,�L
2021/09/08,12:30,0.582,0.861,0.548,1.051,0.732,0.359,0.613,0.577,��,5.0,�L
2021/09/08,12:40,0.581,0.860,0.550,1.051,0.732,0.359,0.614,0.578,��,4.8,�L
2021/09/08,12:50,0.585,0.861,0.551,1.050,0.730,0.358,0.615,0.577,��,5.3,�L
2021/09/08,13:00,0.583,0.858,0.548,1.049,0.730,0.359,0.614,0.577,��,4.5,�L
2021/09/08,13:10,0.582,0.858,0.547,1.048,0.730,0.360,0.614,0.577,��,4.9,�L
2021/09/08,13:20,0.583,0.857,0.547,1.047,0.728,0.360,0.615,0.575,��,4.4,�L
2021/09/08,13:30,0.581,0.855,0.550,1.048,0.727,0.360,0.616,0.576,��,4.4,�L
2021/09/08,13:40,0.582,0.857,0.548,1.047,0.729,0.359,0.613,0.576,��,4.2,�L
2021/09/08,13:50,0.580,0.856,0.548,1.048,0.727,0.359,0.613,0.576,��,4.6,�L
2021/09/08,14:00,0.581,0.854,0.546,1.047,0.726,0.358,0.614,0.577,��,3.9,�L
2021/09/08,14:10,0.581,0.853,0.545,1.046,0.726,0.358,0.613,0.575,��,3.0,�L
2021/09/08,14:20,0.579,0.851,0.548,1.045,0.727,0.358,0.613,0.574,��쐼,2.8,�L
2021/09/08,14:30,0.577,0.850,0.545,1.046,0.725,0.357,0.613,0.574,��쐼,2.3,�L
2021/09/08,14:40,0.578,0.851,0.545,1.043,0.724,0.358,0.612,0.576,��쐼,3.0,�L
2021/09/08,14:50,0.578,0.851,0.543,1.043,0.723,0.358,0.613,0.574,��쐼,3.5,�L
2021/09/08,15:00,0.577,0.848,0.544,1.043,0.723,0.357,0.612,0.575,��,3.2,�L
2021/09/08,15:10,0.576,0.850,0.544,1.041,0.723,0.358,0.613,0.575,��,5.2,�L
2021/09/08,15:20,0.576,0.848,0.545,1.041,0.722,0.357,0.611,0.573,��,5.3,�L
2021/09/08,15:30,0.578,0.849,0.545,1.040,0.723,0.359,0.612,0.575,��,5.7,�L
2021/09/08,15:40,0.577,0.849,0.545,1.039,0.723,0.358,0.610,0.576,��,5.8,�L
2021/09/08,15:50,0.578,0.849,0.546,1.041,0.724,0.356,0.611,0.575,��,5.8,�L
2021/09/08,16:00,0.575,0.850,0.544,1.040,0.723,0.359,0.613,0.573,��,6.1,�L
2021/09/08,16:10,0.577,0.849,0.546,1.041,0.723,0.357,0.611,0.573,��,5.8,�L
2021/09/08,16:20,0.577,0.848,0.545,1.040,0.723,0.358,0.612,0.574,��,4.8,�L
2021/09/08,16:30,0.577,0.850,0.544,1.041,0.722,0.357,0.610,0.574,��,5.4,�L
2021/09/08,16:40,0.575,0.849,0.544,1.040,0.722,0.355,0.610,0.573,��,5.4,�L
2021/09/08,16:50,0.575,0.850,0.542,1.038,0.720,0.356,0.611,0.574,��쐼,5.5,�L
2021/09/08,17:00,0.575,0.848,0.544,1.039,0.721,0.357,0.612,0.575,��,8.3,�L
2021/09/08,17:10,0.577,0.850,0.544,1.038,0.722,0.356,0.611,0.573,��쐼,8.6,�L
2021/09/08,17:20,0.577,0.850,0.544,1.036,0.722,0.356,0.612,0.572,��쐼,7.5,�L
2021/09/08,17:30,0.576,0.848,0.543,1.040,0.724,0.355,0.610,0.574,��쐼,6.4,�L
2021/09/08,17:40,0.575,0.850,0.543,1.039,0.723,0.355,0.611,0.572,��쐼,5.2,�L
2021/09/08,17:50,0.575,0.851,0.543,1.039,0.724,0.356,0.610,0.573,��,5.8,�L
2021/09/08,18:00,0.576,0.850,0.543,1.039,0.722,0.358,0.610,0.574,��,6.2,�L
2021/09/08,18:10,0.575,0.850,0.544,1.039,0.724,0.355,0.611,0.573,��,6.1,�L
2021/09/08,18:20,0.577,0.849,0.544,1.037,0.724,0.356,0.611,0.574,��,6.3,�L
2021/09/08,18:30,0.575,0.850,0.545,1.038,0.722,0.357,0.611,0.572,��,6.5,�L
2021/09/08,18:40,0.576,0.851,0.543,1.039,0.721,0.357,0.610,0.575,��,7.7,�L
2021/09/08,18:50,0.576,0.848,0.544,1.038,0.722,0.358,0.611,0.574,��,8.3,�L
2021/09/08,19:00,0.578,0.851,0.543,1.039,0.721,0.356,0.612,0.574,��,8.4,�L
2021/09/08,19:10,0.575,0.850,0.543,1.039,0.722,0.355,0.610,0.573,��,9.3,��
2021/09/08,19:20,0.573,0.851,0.541,1.037,0.720,0.356,0.611,0.574,��쐼,8.2,��
2021/09/08,19:30,0.576,0.850,0.542,1.036,0.723,0.354,0.612,0.574,��,8.1,�L
2021/09/08,19:40,0.575,0.850,0.541,1.036,0.722,0.354,0.610,0.576,��,8.2,�L
2021/09/08,19:50,0.573,0.850,0.543,1.039,0.722,0.356,0.614,0.573,��,7.7,��
2021/09/08,20:00,0.574,0.848,0.543,1.038,0.722,0.354,0.611,0.573,��,6.5,��
2021/09/08,20:10,0.574,0.849,0.544,1.040,0.722,0.355,0.610,0.574,��,7.7,��
2021/09/08,20:20,0.573,0.852,0.542,1.038,0.723,0.355,0.612,0.575,��,9.0,��
2021/09/08,20:30,0.572,0.849,0.541,1.035,0.724,0.354,0.611,0.575,��,9.8,��
2021/09/08,20:40,0.573,0.849,0.543,1.036,0.722,0.354,0.612,0.574,��,10.3,��
2021/09/08,20:50,0.573,0.850,0.543,1.038,0.724,0.354,0.612,0.574,��쐼,9.7,��
2021/09/08,21:00,0.573,0.850,0.541,1.037,0.724,0.355,0.611,0.574,��쐼,9.1,��
2021/09/08,21:10,0.572,0.848,0.543,1.036,0.722,0.353,0.611,0.573,��쐼,8.2,��
2021/09/08,21:20,0.572,0.848,0.542,1.037,0.723,0.354,0.610,0.575,��,7.2,��
2021/09/08,21:30,0.573,0.850,0.542,1.039,0.723,0.354,0.612,0.573,��,7.4,��
2021/09/08,21:40,0.573,0.848,0.542,1.039,0.725,0.353,0.613,0.575,��,7.4,��
2021/09/08,21:50,0.575,0.851,0.542,1.039,0.722,0.355,0.612,0.576,��,6.6,��
2021/09/08,22:00,0.574,0.851,0.542,1.037,0.724,0.353,0.612,0.577,��,7.9,��
2021/09/08,22:10,0.571,0.852,0.543,1.037,0.723,0.355,0.613,0.576,��,6.6,��
2021/09/08,22:20,0.574,0.853,0.541,1.037,0.725,0.355,0.611,0.575,��,8.1,��
2021/09/08,22:30,0.574,0.850,0.541,1.038,0.726,0.354,0.612,0.575,��,6.0,��
2021/09/08,22:40,0.575,0.851,0.540,1.038,0.727,0.354,0.613,0.578,��,7.9,��
2021/09/08,22:50,0.574,0.851,0.544,1.040,0.725,0.355,0.612,0.577,��,9.1,��
2021/09/08,23:00,0.573,0.852,0.544,1.038,0.724,0.355,0.612,0.577,��,9.0,��
2021/09/08,23:10,0.573,0.850,0.542,1.038,0.724,0.354,0.614,0.575,��,8.6,��
2021/09/08,23:20,0.574,0.855,0.543,1.038,0.724,0.355,0.613,0.576,��,8.1,��
2021/09/08,23:30,0.573,0.851,0.544,1.041,0.725,0.355,0.612,0.577,��,6.7,��
2021/09/08,23:40,0.574,0.853,0.542,1.040,0.726,0.355,0.614,0.577,��,7.9,��
2021/09/08,23:50,0.574,0.851,0.543,1.038,0.725,0.353,0.614,0.577,��,7.9,��
